Regional Weather Roundup
Issued by NWS

Home | Current Version | Previous Version | Graphics & Text | Print | Product List | Glossary On
Versions: 1 2 3 4 5 6 7 8 9 10 11 12 13 14 15 16 17 18 19 20 21 22 23 24 25 26 27 28 29 30 31 32 33 34 35 36 37 38 39 40 41 42 43 44 45 46 47 48 49 50
000
ASUS43 KDMX 232101
RWRIA

WEATHER ROUNDUP FOR IOWA
NATIONAL WEATHER SERVICE DES MOINES IA
300 PM CST TUE JAN 23 2018

NOTE: "FAIR" INDICATES FEW OR NO CLOUDS BELOW 12,000 FEET WITH NO
SIGNIFICANT WEATHER AND/OR OBSTRUCTIONS TO VISIBILITY.

* - THESE STATIONS ARE NOT NWS STATIONS...THUS NOT UNDER NWS
QUALITY CONTROL.  THEY ALSO DO NOT REPORT WEATHER SUCH
AS PRECIPITATION OR FOG.

IAZ001>003-012>014-020>022-031>034-043>046-232200-
   NORTHWEST IOWA

CITY           SKY/WX    TMP DP  RH WIND       PRES   REMARKS
CARROLL *      CLOUDY    25  21  86 W10G17    30.14S WCI  15
CHEROKEE *     CLOUDY    25  22  89 W7        30.14R WCI  17
DENISON *      CLOUDY    25  21  86 W9        30.16S WCI  15
LE MARS *      CLOUDY    23  21  93 SW9       30.15R WCI  13
ORANGE CITY *  CLOUDY    23  21  93 W9        30.12R WCI  13
SHELDON *      CLOUDY    23  21  93 NW7       30.10R WCI  15
SIOUX CITY     CLOUDY    23  20  88 W7        30.16S WCI  15
SPENCER        CLOUDY    24  18  77 NW13      30.11R WCI  12
STORM LAKE *     N/A     23  19  86 W8G15     30.11S WCI  14
$$

IAZ055>058-069>071-079>083-090>094-232200-
   SOUTHWEST IOWA

CITY           SKY/WX    TMP DP  RH WIND       PRES   REMARKS
ATLANTIC *     CLOUDY    27  23  86 NW10      30.16S WCI  17
AUDUBON *      CLOUDY    27  21  80 W8        30.15S WCI  18
CLARINDA *     CLOUDY    27  25  93 NW12        N/A  WCI  16
COUNCIL BLFS * CLOUDY    25  25 100 W8        30.18R WCI  16
CRESTON *      CLOUDY    27  21  80 NW15G22   30.17R WCI  15
HARLAN  *      CLOUDY    25  25 100 NW10      30.20R WCI  15
LAMONI         CLOUDY    27  21  78 W17       30.15R WCI  14
RED OAK *      CLOUDY    27  23  86 NW8       30.19S WCI  18
SHENANDOAH *   CLOUDY    27  23  86 NW6G14    30.21S WCI  20
$$

IAZ047>049-059>061-072>074-084-232200-
   CENTRAL IOWA

CITY           SKY/WX    TMP DP  RH WIND       PRES   REMARKS
AMES           CLOUDY    26  23  88 NW14      30.13R WCI  14
ANKENY *       CLOUDY    27  23  86 NW13      30.15R WCI  16
BOONE *        CLOUDY    25  21  86 W14G20    30.12R WCI  13
CHARITON *     CLOUDY    27  23  86 W13       30.14R WCI  16
DES MOINES     CLOUDY    27  21  78 NW13      30.15R WCI  16
GRINNELL*      CLOUDY    27  22  81 NW20G26   30.11R WCI  14
KNOXVILLE *    CLOUDY    28  21  74 NW18      30.13R WCI  16
MARSHALLTOWN   CLOUDY    28  22  78 NW21G28   30.09R WCI  15
NEWTON *       CLOUDY    27  21  80 NW14G21   30.13R WCI  15
PELLA *        CLOUDY    28  21  75 NW15G24   30.14R WCI  17
$$

IAZ004>006-015-016-023>025-035-036-232200-
   NORTH CENTRAL IOWA

CITY           SKY/WX    TMP DP  RH WIND       PRES   REMARKS
CLARION *      MOSUNNY   25  23  93 NW16      30.10R WCI  12
ESTHERVILLE    MIX PCPN  21  17  84 NW16      30.10R WCI   7
FORT DODGE *   CLOUDY    26  19  74 NW7       30.12R WCI  18
MASON CITY     SUNNY     22  16  78 NW15      30.09R WCI   9
FOREST CITY *    N/A     25  19  80 NW12G18   30.08R WCI  14
WEBSTER CITY * CLOUDY    27  21  80 NW15      30.10R WCI  15
IOWA FALLS *   PTSUNNY   28  22  78 NW20      30.10R WCI  15
$$

IAZ007>011-017>019-026>030-037>042-050>054-066-232200-
   NORTHEAST IOWA

CITY           SKY/WX    TMP DP  RH WIND       PRES   REMARKS
CEDAR RAPIDS   CLOUDY    28  21  75 NW21G28   30.06R WCI  15
CHARLES CITY * CLOUDY    23  23 100 NW9G18    30.08R WCI  13
CLINTON *      CLOUDY    27  24  89 W18       30.04R WCI  14
DECORAH *      CLOUDY    23  19  86 N15G21    30.03R WCI  10
DUBUQUE        CLOUDY    24  20  84 NW13      30.01R WCI  12
MONTICELLO *   CLOUDY    25  21  86 NW16G23   30.05R WCI  12
OELWEIN *      CLOUDY    23  23 100 NW18G24   30.06R WCI   9
WATERLOO       CLOUDY    23  17  78 NW17      30.08R WCI   9
$$

IAZ064-065-067-068-078-232200-
   EAST CENTRAL IOWA

CITY           SKY/WX    TMP DP  RH WIND       PRES   REMARKS
DAVENPORT      CLOUDY    28  22  78 NW17      30.06R WCI  16
IOWA CITY      CLOUDY    32  20  61 NW17G28   30.08R WCI  21
MT. PLEASANT * CLOUDY    32  23  69 W18       30.10R WCI  20
MUSCATINE *    CLOUDY    32  21  64 NW18G25   30.08R WCI  20
QUAD CITIES    CLOUDY    30  22  72 NW15      30.05R WCI  19
$$

IAZ062-063-075>077-085>089-095>099-232200-
   SOUTHEAST IOWA

CITY           SKY/WX    TMP DP  RH WIND       PRES   REMARKS
BURLINGTON     MOSUNNY   31  22  69 NW13G23   30.08R WCI  21
FAIRFIELD *    CLOUDY    30  21  69 NW17G23   30.10R WCI  18
FORT MADISON * CLOUDY    30  25  80 NW20      30.10R WCI  18
KEOKUK *       CLOUDY    32  25  74 W14       30.10R WCI  22
OSKALOOSA *    CLOUDY    28  23  79 NW21      30.12R WCI  15
OTTUMWA        CLOUDY    30  21  69 W17G25    30.11R WCI  18
WASHINGTON *     N/A     30  25  80 NW21G28   30.10R WCI  17
$$

ABBREVIATIONS USED IN REMARKS
   TC - TEMPERATURES IN CELSIUS
  WCI - WIND CHILL INDEX
   HX - HEAT INDEX
  VSB - VISIBILITY
$$





USA.gov is the U.S. government's official web portal to all federal, state and local government web resources and services.